Location: Bremen
(53.0796°N, 8.8241°E)
Time: 14:02:28
(UTC+02:00)

ISS - Pass Details

Date: 05 January 2018
Orbit: 403 x 406 km, 51.6° (Epoch: 26 April)

Event Time Altitude Azimuth Distance (km) Brightness Sun altitude
Exits shadow 04:47:32 - 88° (E) 1,585 0.0 -33.2°
Enters shadow 05:44:44 -66° 260° (W) 12,103 3.6 -24.6°
Maximum altitude 06:20:34 67° 175° (S) 452 -3.7 -19.3°
